Regional Weather Roundup
Issued by NWS

Home | Current Version | Previous Version | Text Only | Print | Product List | Glossary On
Versions: 1 2 3 4 5 6 7 8 9 10 11 12 13 14 15 16 17 18 19 20 21 22 23 24 25 26 27 28 29 30 31 32 33 34 35 36 37 38 39 40 41 42 43 44 45 46 47 48 49 50
000
ASUS46 KSTO 090015
RWRCA

NORTHERN AND CENTRAL CA REGIONAL WEATHER ROUNDUP
NATIONAL WEATHER SERVICE SACRAMENTO CA
400 PM PST THU DEC 08 2016

NOTE: FAIR INDICATES FEW OR NO CLOUDS BELOW 12,000 FEET WITH NO
SIGNIFICANT WEATHER AND/OR OBSTRUCTIONS TO VISIBILITY.

CAZ001-003-090100-
NORTHWEST AREA

CITY           SKY/WX    TMP DP  RH WIND       PRES   REMARKS
CRESCENT CITY  LGT RAIN  53  53 100 S18G28    29.96R FOG
UKIAH          CLOUDY    48  47  96 CALM      30.11S FOG
$$

CAZ006-505>513-090100-
BAY AREA

CITY           SKY/WX    TMP DP  RH WIND       PRES   REMARKS
SANTA ROSA     LGT RAIN  51  51 100 NW3       30.11S FOG
SAN RAFAEL     N/A       50  MM  MM MISG
NAPA           LGT RAIN  54  51  90 E10       30.13R FOG
CONCORD        LGT RAIN  53  50  89 CALM      30.14R VSB 1
OAKLAND CITY   N/A       59  MM  MM MISG
OAKLAND        CLOUDY    60  56  86 S6        30.12S
SAN FRAN CITY  N/A       59  MM 100 MISG
SAN FRAN ARPT  CLOUDY    59  56  89 E3        30.12R FOG
LIVERMORE      CLOUDY    61  54  77 W3        30.12R
HAYWARD        CLOUDY    62  53  72 S10       30.12R
REDWOOD CITY   N/A       60  MM  93 MISG
MOFFETT ARPT   MOCLDY    63  54  72 SE10      30.13R
SAN JOSE ARPT  CLOUDY    62  54  74 SE14      30.13S
$$
CAZ034-037-514>518-090100-
CENTRAL COAST

CITY           SKY/WX    TMP DP  RH WIND       PRES   REMARKS
WATSONVILLE    LGT RAIN  57  57 100 CALM      30.16S VSB 1
SALINAS        CLOUDY    60  55  83 E15       30.15S
MONTEREY       CLOUDY    64  58  80 S5        30.15R
SAN LUIS OBISP LGT RAIN  60  58  92 SE6       30.21F FOG
SANTA MARIA    LGT RAIN  59  59 100 S3        30.23S VSB 3/4
$$
CAZ015-016-090100-
NORTHERN SACRAMENTO VALLEY

CITY           SKY/WX    TMP DP  RH WIND       PRES   REMARKS
REDDING        CLOUDY    43  42  97 CALM      30.15S FOG
RED BLUFF      CLOUDY    41  40  96 NW5       30.17F FOG
OROVILLE       LGT RAIN  47  45  93 CALM      30.18R FOG
$$
CAZ016>018-090100-
SOUTHERN SACRAMENTO VALLEY

CITY           SKY/WX    TMP DP  RH WIND       PRES   REMARKS
AUBURN         CLOUDY    52  52 100 S5        30.15R VSB<1/4
BEALE AFB      DRZL/FOG  46  46 100 CALM      30.15R VSB 1
LINCOLN        CLOUDY    43  41  93 CALM      30.16R
MARYSVILLE     LGT RAIN  46  44  93 N3        30.17R FOG
SAC INTL ARPT  CLOUDY    45  45 100 NW3       30.16R FOG
MATHER AIRPORT CLOUDY    54  54 100 S13       30.16R
DOWNTOWN SAC   N/A       54  MM  MM MISG
SAC EXEC ARPT  LGT RAIN  52  52 100 NW3       30.16R FOG
VACAVILLE      LGT RAIN  47  47 100 N6        30.17R FOG
TRAVIS AFB     CLOUDY    53  52  97 N6        30.13R FOG
$$
CAZ019>021-090100-
SAN JOAQUIN VALLEY

CITY           SKY/WX    TMP DP  RH WIND       PRES   REMARKS
STOCKTON       LGT RAIN  55  50  83 SE21G28   30.15S
MODESTO        CLOUDY    56  51  84 SE10      30.18S
MERCED         CLOUDY    55  52  89 SE12      30.19S
LEMOORE        CLOUDY    58  53  84 SE9       30.21S
FRESNO         CLOUDY    56  53  90 E7        30.22S
HANFORD        MOCLDY    57  57 100 E5        30.23R
PORTERVILLE    MOCLDY    59  56  89 NE7       30.23R
BAKERSFIELD    CLOUDY    65  47  52 W8        30.20R
$$
CAZ011-012-071-090100-
NORTHERN MOUNTAINS

CITY           SKY/WX    TMP DP  RH WIND       PRES   REMARKS
YREKA          MOCLDY    43  34  70 N3        29.95S
MOUNT SHASTA   CLOUDY    35  33  92 VRB3      30.06R FOG
ALTURAS        CLOUDY    35  33  92 W6        30.01R WCI  30
$$
CAZ011-012-071-090100-
SIERRA NEVADA MTNS

CITY           SKY/WX    TMP DP  RH WIND       PRES   REMARKS
BLUE CANYON    LGT RAIN  43  42  97 S15G23    30.16R VSB<1/4
TRUCKEE        CLOUDY    43  34  70 E10       30.10S
TAHOE VLY ARPT MOCLDY    44  34  67 S14G26    30.09R
MAMMOTH LAKES  FAIR      46  27  47 W9G45     30.17F
$$




USA.gov is the U.S. government's official web portal to all federal, state and local government web resources and services.